Terug naar catalogus

COSMOS 2436

GLONASS

ActiefNavigatieMEO
NORAD 32395·PAYLOAD·🇷🇺 Russia

Gelanceerd Dec 25, 2007 vanaf Baikonur Cosmodrome

Loading…

Volgende Passages (komende 24 uur)

TLE

VersSource: CelesTrak SupGP

Epoch: Sep 12, 2026, 23:59 UTC

1 32395C 07065C   26255.99979167  .00000000  00000+0  00000+0 0  2550
2 32395  64.3277 189.0292 0017504 359.9599 276.7950  2.13099904    14

Volg COSMOS 2436 in realtime met AllMySat

Download on the App Store